Location: Winthrop
(48.4780°N, 120.1850°W)
Time: 18:58:07
(UTC-07:00)

XW-2A - Pass Details

Date: 26 May 2022
Orbit: 397 x 413 km, 97.2° (Epoch: 29 June)

Event Time Altitude Azimuth Distance (km) Brightness Sun altitude
Exits shadow 21:36:24 - 156° (SSE) 1,678 ? -7.0°
Reaches altitude 10° 21:36:49 10° 155° (SSE) 1,500 ? -7.1°
Maximum altitude 21:39:59 61° 75° (ENE) 483 ? -7.4°
Drops below altitude 10° 21:43:10 10° 354° (N) 1,509 ? -7.8°
Sets 21:45:11 0° 351° (N) 2,375 ? -8.0°
